Zurück zum Katalog

STARLINK-35399

AktivKommunikationVLEO
NORAD 66029·PAYLOAD·🇺🇸 United States

Gestartet Oct 16, 2025 von Cape Canaveral Space Force Station

Loading…

Nächste Überflüge (nächste 24 Stunden)

TLE

AktuellSource: CelesTrak SupGP

Epoche: Sep 14, 2026, 15:48 UTC

1 66029C 25232AA  26257.65881944  .00021249  00000+0  62800-3 0  2577
2 66029  53.1575 303.3441 0001242  70.8761  61.2719 15.34370695    17

Verfolge STARLINK-35399 in Echtzeit mit AllMySat

Download on the App Store